[TLELIST] Archives

 

[list_settings.list_name] Current TLEs

September 26th 2010 PST

HST 1 20580U 90037B 10267.18560063 .00000626 00000-0 35007-4 0 6506 2 20580 028.4709 313.5407 0003561 173.3422 186.7235 15.01042807919646 ISS (ZARYA) 1 25544U 98067A 10269.21456019 .00022549 00000-0 17726-3 0 9602 2 25544 051.6451 073.7296 0007025 035.4881 313.9618 15.71385048679354 CXO 1 25867U 99040B 10269.54166667 .00000222 00000-0 10000-3 0 5175 2 25867 067.6778 048.2541 8308307 275.4777 357.7981 00.37804459 6773 ____________________________________________________________________ These 2-Line ...Continue Reading

[list_settings.list_name] Current TLEs

September 25th 2010 PST

HST 1 20580U 90037B 10267.18560063 .00000626 00000-0 35007-4 0 6506 2 20580 028.4709 313.5407 0003561 173.3422 186.7235 15.01042807919646 ISS (ZARYA) 1 25544U 98067A 10268.26442130 .00017392 00000-0 13823-3 0 9520 2 25544 051.6449 078.5867 0006905 032.4457 338.5006 15.71323813679211 CXO 1 25867U 99040B 10266.91666667 .00000210 00000-0 10000-3 0 5164 2 25867 067.6598 048.4136 8307791 275.4623 000.4417 00.37808768 6763 ____________________________________________________________________ These 2-Line ...Continue Reading

[list_settings.list_name] Current TLEs

September 24th 2010 PST

HST 1 20580U 90037B 10267.18560063 .00000626 00000-0 35007-4 0 6506 2 20580 028.4709 313.5407 0003561 173.3422 186.7235 15.01042807919646 ISS (ZARYA) 1 25544U 98067A 10267.31907728 .00016039 00000-0 12809-3 0 9456 2 25544 051.6446 083.4224 0006573 029.5346 030.2690 15.71284096679062 CXO 1 25867U 99040B 10266.91666667 .00000210 00000-0 10000-3 0 5164 2 25867 067.6598 048.4136 8307791 275.4623 000.4417 00.37808768 6763 ____________________________________________________________________ These 2-Line ...Continue Reading

[list_settings.list_name] Current TLEs

September 23rd 2010 PST

HST 1 20580U 90037B 10265.25740514 .00000595 00000-0 32635-4 0 6490 2 20580 028.4710 326.1269 0003597 154.1233 205.9576 15.01040865919352 ISS (ZARYA) 1 25544U 98067A 10266.29150463 .00015438 00000-0 12366-3 0 9414 2 25544 051.6451 088.6763 0006681 026.9772 336.3810 15.71247358678903 CXO 1 25867U 99040B 10266.91666667 .00000210 00000-0 10000-3 0 5164 2 25867 067.6598 048.4136 8307791 275.4623 000.4417 00.37808768 6763 ____________________________________________________________________ These 2-Line ...Continue Reading

[list_settings.list_name] Current TLEs

September 22nd 2010 PST

HST 1 20580U 90037B 10265.25740514 .00000595 00000-0 32635-4 0 6490 2 20580 028.4710 326.1269 0003597 154.1233 205.9576 15.01040865919352 ISS (ZARYA) 1 25544U 98067A 10265.53477622 .00014853 00000-0 11930-3 0 9358 2 25544 051.6452 092.5461 0006606 024.2015 015.8771 15.71220689678780 CXO 1 25867U 99040B 10264.25000000 .00000127 00000-0 10000-3 0 5158 2 25867 067.6435 048.5545 8305522 275.4440 357.4623 00.37807174 6758 ____________________________________________________________________ These 2-Line ...Continue Reading

[list_settings.list_name] Current TLEs

September 21st 2010 PST

HST 1 20580U 90037B 10264.26006183 .00000603 00000-0 33305-4 0 6481 2 20580 028.4713 332.6410 0003516 143.3623 216.7238 15.01040037919209 ISS (ZARYA) 1 25544U 98067A 10264.25342593 .00014521 00000-0 11694-3 0 9285 2 25544 051.6456 099.0996 0006702 020.9445 326.5223 15.71179712678577 CXO 1 25867U 99040B 10264.25000000 .00000127 00000-0 10000-3 0 5158 2 25867 067.6435 048.5545 8305522 275.4440 357.4623 00.37807174 6758 ____________________________________________________________________ These 2-Line ...Continue Reading

[list_settings.list_name] Current TLEs

September 20th 2010 PST

HST 1 20580U 90037B 10262.66431295 .00000569 00000-0 30693-4 0 6476 2 20580 028.4712 343.0574 0003495 126.7733 233.3349 15.01038398918965 ISS (ZARYA) 1 25544U 98067A 10263.36480324 .00012517 00000-0 10162-3 0 9227 2 25544 051.6452 103.6427 0006360 016.2485 341.6040 15.71146994678432 CXO 1 25867U 99040B 10264.25000000 .00000127 00000-0 10000-3 0 5158 2 25867 067.6435 048.5545 8305522 275.4440 357.4623 00.37807174 6758 ____________________________________________________________________ These 2-Line ...Continue Reading

[list_settings.list_name] Current TLEs

September 19th 2010 PST

HST 1 20580U 90037B 10259.53929104 .00000450 00000-0 21596-4 0 6458 2 20580 028.4708 003.4610 0003296 094.9109 265.1874 15.01035155918492 ISS (ZARYA) 1 25544U 98067A 10262.05526425 .00014397 00000-0 11631-3 0 9146 2 25544 051.6446 110.3395 0006280 011.7023 134.3274 15.71115155678232 CXO 1 25867U 99040B 10261.62500000 -.00000036 00000-0 10000-3 0 5140 2 25867 067.6303 048.6587 8302635 275.4332 000.1508 00.37804813 6741 ____________________________________________________________________ These 2-Line ...Continue Reading

[list_settings.list_name] Current TLEs

September 18th 2010 PST

HST 1 20580U 90037B 10259.53929104 .00000450 00000-0 21596-4 0 6458 2 20580 028.4708 003.4610 0003296 094.9109 265.1874 15.01035155918492 ISS (ZARYA) 1 25544U 98067A 10261.32613426 .00010582 00000-0 86873-4 0 9102 2 25544 051.6443 114.0673 0006250 008.8839 330.4309 15.71088622678111 CXO 1 25867U 99040B 10261.62500000 -.00000036 00000-0 10000-3 0 5140 2 25867 067.6303 048.6587 8302635 275.4332 000.1508 00.37804813 6741 ____________________________________________________________________ These 2-Line ...Continue Reading

[list_settings.list_name] Current TLEs

September 17th 2010 PST

HST 1 20580U 90037B 10259.53929104 .00000450 00000-0 21596-4 0 6458 2 20580 028.4708 003.4610 0003296 094.9109 265.1874 15.01035155918492 ISS (ZARYA) 1 25544U 98067A 10260.20238663 .00010293 00000-0 84722-4 0 9058 2 25544 051.6448 119.8137 0006182 003.0887 096.1794 15.71063663677940 CXO 1 25867U 99040B 10258.95833333 -.00000249 +00000-0 +10000-3 0 05146 2 25867 067.6195 048.7669 8299290 275.4076 357.2709 00.37808257006733 ____________________________________________________________________ These 2-Line ...Continue Reading
  • This mailing list is a public mailing list - anyone may join or leave, at any time.
  • This mailing list is announce-only.

International Space Station (ISS) / Hubble Space Telescope (HST) / Chandra X-Ray Observatory Orbital Data via EMAIL

Privacy Policy:

Private list